Regional Weather Roundup
Issued by NWS

Home | Current Version | Previous Version | Text Only | Print | Product List | Glossary Off
Versions: 1 2 3 4 5 6 7 8 9 10 11 12 13 14 15 16 17 18 19 20 21 22 23 24 25 26 27 28 29 30 31 32 33 34 35 36 37 38 39 40 41 42 43 44 45 46 47 48 49 50

000
ASUS43 KLMK 231210
RWRKY
KENTUCKY REGIONAL WEATHER ROUNDUP
NATIONAL WEATHER SERVICE LOUISVILLE KY
800 AM EDT WED APR 23 2014

NOTE "FAIR" INDICATES FEW OR NO CLOUDS BELOW 12,000 FEET
WITH NO SIGNIFICANT WEATHER AND/OR OBSTRUCTIONS TO VISIBILITY.

KYZ001>023-026-027-061>063-070>075-231300-
WESTERN AND SOUTH CENTRAL KENTUCKY

CITY           SKY/WX    TMP DP  RH WIND       PRES   REMARKS
PADUCAH        CLEAR     46  40  79 CALM      30.06R
HENDERSON      CLEAR     46  34  61 NE8       30.10R
OWENSBORO      SUNNY     47  35  63 NE5       30.10R
HOPKINSVILLE   CLEAR     46  41  81 NE7       30.07R
BOWLING GREEN  SUNNY     46  33  60 CALM      30.09R
GLASGOW        SUNNY     45  32  60 CALM      30.07R
$$

KYZ024-025-028>034-038-045-046-053-231300-
NORTH CENTRAL KENTUCKY

CITY           SKY/WX    TMP DP  RH WIND       PRES   REMARKS
LOUISVILLE/SDF MOSUNNY   46  32  58 N9        30.09R
LOUISVILLE/LOU SUNNY     47  31  53 N8        30.09R
FORT KNOX      SUNNY     42  33  70 NW6       30.07R
$$

KYZ035>037-039>044-047>052-055>060-089>105-231300-
NORTHEAST KENTUCKY

CITY           SKY/WX    TMP DP  RH WIND       PRES   REMARKS
LEXINGTON      SUNNY     41  32  70 N3        30.05R
COVINGTON      SUNNY     40  31  70 N9        30.06R WCI  34
FRANKFORT      SUNNY     41  32  70 N5        30.06R
$$

KYZ054-064>069-076>088-106>120-231300-
SOUTHEAST KENTUCKY

CITY           SKY/WX    TMP DP  RH WIND       PRES   REMARKS
JACKSON        SUNNY     44  27  51 VRB5      30.02R
LONDON         SUNNY     44  34  67 CALM      30.03R
SOMERSET       SUNNY     45  32  61 CALM      30.06R
MIDDLESBORO    SUNNY     46  31  56 CALM      30.03R
MONTICELLO     SUNNY     41  36  82 CALM      30.07R
$$




USA.gov is the U.S. government's official web portal to all federal, state and local government web resources and services.